Regional Weather Roundup
Issued by NWS

Home | Current Version | Previous Version | Graphics & Text | Print | Product List | Glossary On
Versions: 1 2 3 4 5 6 7 8 9 10 11 12 13 14 15 16 17 18 19 20 21 22 23 24 25 26 27 28 29 30 31 32 33 34 35 36 37 38 39 40 41 42 43 44 45 46 47 48 49 50
000
ASUS43 KLOT 220703
RWRIL

ILLINOIS REGIONAL WEATHER ROUNDUP
NATIONAL WEATHER SERVICE CHICAGO/ROMEOVILLE IL
100 AM CST WED NOV 22 2017

NOTE: "FAIR" INDICATES FEW OR NO CLOUDS BELOW 12,000 FEET WITH NO
SIGNIFICANT WEATHER AND/OR OBSTRUCTIONS TO VISIBILITY.

* THESE STATIONS ARE NOT UNDER NWS QUALITY CONTROL. THEY ALSO MAY NOT
  REPORT WEATHER SUCH AS PRECIPITATION OR FOG.

ILZ001-002-007-009-015-016-024-220800-
NORTHWEST ILLINOIS

CITY           SKY/WX    TMP DP  RH WIND       PRES   REMARKS
MOLINE         CLEAR     23  15  71 NW6       30.30S WCI  16
STERLING*      CLEAR     24  17  74 NW5       30.29R WCI  18
$$

ILZ003-004-008-010-011-017-018-220800-
NORTH CENTRAL ILLINOIS

CITY           SKY/WX    TMP DP  RH WIND       PRES   REMARKS
ROCKFORD       CLEAR     23  14  68 NW10      30.27S WCI  12
$$

ILZ005-006-012>014-019>023-220800-
NORTHEAST ILLINOIS

CITY           SKY/WX    TMP DP  RH WIND       PRES   REMARKS
CHICAGO-OHARE  CLEAR     27  14  58 NW12      30.22R WCI  17
CHICAGO-MIDWAY NOT AVBL
AURORA         PTCLDY    21  17  84 NW8       30.24S WCI  11
WAUKEGAN       CLEAR     23  15  71 NW6       30.22R WCI  16
DUPAGE AIRPORT CLEAR     23  16  74 NW8       30.23R WCI  14
WHEELING       CLEAR     26  16  65 NW8       30.23F WCI  18
NORTHERLY ISL    N/A     28  15  58 W5          N/A  WCI  23
$$

LMZ740>746-220800-
SOUTHERN LAKE MICHIGAN

STATION/POSITION SKY/WX   TEMP    WIND        PRES    VSBY  WAVE
                          AIR SEA DIR/SP/G                  HT/PER
                          (F)     (DEG/KT/KT) (MB)    (MI)  (FT/S)
SOUTHERN BUOY              32 47  350/ 19/ 23 1022.2          5/ 7
HARRISON CRIB              29     310/ 18/ 20   N/A
BURNHAM HARBOR             28     320/  9/ 16   N/A
CALUMET HARBOR             27     290/  9/ 12 1022.6R
BURNS HARBOR               33     320/ 14/ 19 1023.0R
MICHIGAN CITY              33     320/ 19/ 20   N/A
$$

ILZ025>027-034>036-040-047-049-050-058-095>099-220800-
WEST-CENTRAL ILLINOIS

CITY           SKY/WX    TMP DP  RH WIND       PRES   REMARKS
QUINCY         CLEAR     23  17  78 NW5       30.32R WCI  17
$$

ILZ028>032-037-038-041>044-048-051>054-059>061-220800-
CENTRAL ILLINOIS

CITY           SKY/WX    TMP DP  RH WIND       PRES   REMARKS
PONTIAC        CLEAR     25  22  90 NW6       30.25S WCI  18
BLOOMINGTON    CLEAR     24  18  77 NW7       30.27R WCI  16
DECATUR        CLEAR     27  19  72 NW12      30.27R WCI  17
PEORIA         CLEAR     25  17  72 N3        30.29R
SPRINGFIELD    CLEAR     27  19  72 NW9       30.29S WCI  18
TAYLORVILLE    NOT AVBL
$$

ILZ033-039-045-046-055>057-062-063-220800-
EAST-CENTRAL ILLINOIS

CITY           SKY/WX    TMP DP  RH WIND       PRES   REMARKS
CHAMPAIGN      CLEAR     25  20  81 NW8       30.25R WCI  16
MATTOON        CLEAR     26  22  84 NW13      30.24R WCI  15
$$

ILZ079-100>102-220800-
SOUTHWEST ILLINOIS

CITY           SKY/WX    TMP DP  RH WIND       PRES   REMARKS
BELLEVILLE     CLEAR     29  19  67 NW7       30.29R WCI  22
CAHOKIA*       CLEAR     30  18  60 N13       30.31R WCI  20
$$

ILZ064>066-069>071-074>076-080>082-084>086-088>090-092>094-220800-
SOUTH-CENTRAL ILLINOIS

CITY           SKY/WX    TMP DP  RH WIND       PRES   REMARKS
CARBONDALE     CLEAR     30  22  72 N9        30.29R WCI  22
MT. VERNON     CLEAR     29  22  75 CALM      30.28S
$$

ILZ067-068-072-073-078-083-087-091-220800-
SOUTHEAST ILLINOIS

CITY           SKY/WX    TMP DP  RH WIND       PRES   REMARKS
LAWRENCEVILLE  CLEAR     29  22  75 NW7       30.25S WCI  22
ROBINSON*      CLEAR     29  23  78 NW8       30.25S WCI  21
$$

ABBREVIATIONS USED IN REMARKS
   TC - TEMPERATURE IN CELSIUS
  WCI - WIND CHILL INDEX
   HX - HEAT INDEX
  VSB - VISIBILITY
$$




USA.gov is the U.S. government's official web portal to all federal, state and local government web resources and services.